Time,TemperatureF,DewpointF,PressureIn,WindDirection,WindDirectionDegrees,WindSpeedMPH,WindSpeedGustMPH,Humidity,HourlyPrecipIn,Conditions,Clouds,dailyrainin,SolarRadiationWatts/m^2,SoftwareType,DateUTC
2013-06-25 00:00:00,76.6,75.0,30.14,SE,132,0.0,0.0,95,0.00,,,0.11,0.00,VWS V14.01,2013-06-25 04:00:00,
2013-06-25 00:01:00,76.6,75.3,30.14,SE,132,0.0,0.0,96,0.00,,,0.00,0.00,VWS V14.01,2013-06-25 04:01:00,
2013-06-25 00:06:00,76.6,75.3,30.14,SE,133,0.0,0.0,96,0.00,,,0.00,0.00,VWS V14.01,2013-06-25 04:06:00,
2013-06-25 00:11:00,76.6,75.3,30.13,SSE,156,0.0,0.0,96,0.00,,,0.00,0.00,VWS V14.01,2013-06-25 04:11:00,
2013-06-25 00:16:00,76.8,75.5,30.13,South,185,0.0,0.0,96,0.00,,,0.00,0.00,VWS V14.01,2013-06-25 04:16:00,
2013-06-25 00:21:00,76.9,75.4,30.14,SW,218,0.0,0.0,95,0.00,,,0.00,0.00,VWS V14.01,2013-06-25 04:21:00,
2013-06-25 00:26:00,76.9,75.4,30.14,SSW,204,1.1,1.1,95,0.00,,,0.00,0.00,VWS V14.01,2013-06-25 04:26:00,
2013-06-25 00:31:00,77.1,75.5,30.14,SSW,204,0.0,2.2,95,0.00,,,0.00,0.00,VWS V14.01,2013-06-25 04:31:00,
2013-06-25 00:36:00,77.1,75.5,30.14,SSW,204,0.0,0.0,95,0.00,,,0.00,0.00,VWS V14.01,2013-06-25 04:36:00,
2013-06-25 00:41:00,76.8,75.2,30.14,SSW,204,0.0,0.0,95,0.00,,,0.00,0.00,VWS V14.01,2013-06-25 04:41:00,
2013-06-25 00:46:00,76.4,74.9,30.14,SSW,204,0.0,0.0,95,0.00,,,0.00,0.00,VWS V14.01,2013-06-25 04:46:00,
2013-06-25 00:51:00,76.2,74.7,30.14,SSW,204,0.0,0.0,95,0.00,,,0.00,0.00,VWS V14.01,2013-06-25 04:51:00,
2013-06-25 00:56:00,76.2,74.6,30.14,SE,144,0.0,0.0,95,0.00,,,0.00,0.00,VWS V14.01,2013-06-25 04:56:00,
2013-06-25 01:01:00,76.2,75.0,30.14,South,181,0.0,0.0,96,0.00,,,0.00,0.00,VWS V14.01,2013-06-25 05:01:00,
2013-06-25 01:06:00,76.1,74.8,30.14,South,180,0.0,0.0,96,0.00,,,0.00,0.00,VWS V14.01,2013-06-25 05:06:00,
2013-06-25 01:11:00,75.8,74.6,30.14,South,180,0.0,0.0,96,0.00,,,0.00,0.00,VWS V14.01,2013-06-25 05:11:00,
2013-06-25 01:16:00,75.7,74.4,30.14,South,180,0.0,0.0,96,0.00,,,0.00,0.00,VWS V14.01,2013-06-25 05:16:00,
2013-06-25 01:21:00,75.6,74.3,30.14,South,180,0.0,0.0,96,0.00,,,0.00,0.00,VWS V14.01,2013-06-25 05:21:00,
2013-06-25 01:26:00,75.6,74.3,30.15,South,180,0.0,0.0,96,0.00,,,0.00,0.00,VWS V14.01,2013-06-25 05:26:00,
2013-06-25 01:31:00,75.4,74.2,30.14,South,180,0.0,0.0,96,0.00,,,0.00,0.00,VWS V14.01,2013-06-25 05:31:00,
2013-06-25 01:36:00,75.3,74.4,30.14,South,180,0.0,0.0,97,0.00,,,0.00,0.00,VWS V14.01,2013-06-25 05:36:00,
2013-06-25 01:41:00,75.2,74.3,30.14,South,180,0.0,0.0,97,0.00,,,0.00,0.00,VWS V14.01,2013-06-25 05:41:00,
2013-06-25 01:46:00,75.2,74.2,30.14,South,180,0.0,0.0,97,0.00,,,0.00,0.00,VWS V14.01,2013-06-25 05:46:00,
2013-06-25 01:51:00,75.2,74.3,30.14,South,180,0.0,0.0,97,0.00,,,0.00,0.00,VWS V14.01,2013-06-25 05:51:00,
2013-06-25 01:56:00,75.2,74.2,30.13,South,180,0.0,0.0,97,0.00,,,0.00,0.00,VWS V14.01,2013-06-25 05:56:00,
2013-06-25 02:01:00,75.1,74.2,30.13,South,180,0.0,0.0,97,0.00,,,0.00,0.00,VWS V14.01,2013-06-25 06:01:00,
2013-06-25 02:06:00,74.9,74.1,30.13,South,180,0.0,0.0,97,0.00,,,0.00,0.00,VWS V14.01,2013-06-25 06:06:00,
2013-06-25 02:11:00,74.8,73.9,30.13,South,180,0.0,0.0,97,0.00,,,0.00,0.00,VWS V14.01,2013-06-25 06:11:00,
2013-06-25 02:16:00,74.8,73.9,30.13,South,180,0.0,0.0,97,0.00,,,0.00,0.00,VWS V14.01,2013-06-25 06:16:00,
2013-06-25 02:21:00,74.8,73.8,30.12,South,180,0.0,0.0,97,0.00,,,0.00,0.00,VWS V14.01,2013-06-25 06:21:00,
2013-06-25 02:26:00,74.6,73.7,30.12,South,180,0.0,0.0,97,0.00,,,0.00,0.00,VWS V14.01,2013-06-25 06:26:00,
2013-06-25 02:31:00,74.6,73.7,30.12,South,180,0.0,0.0,97,0.00,,,0.00,0.00,VWS V14.01,2013-06-25 06:31:00,
2013-06-25 02:36:00,74.4,73.6,30.12,South,180,0.0,0.0,97,0.00,,,0.00,0.00,VWS V14.01,2013-06-25 06:36:00,
2013-06-25 02:41:00,74.3,73.4,30.12,South,180,0.0,0.0,97,0.00,,,0.00,0.00,VWS V14.01,2013-06-25 06:41:00,
2013-06-25 02:46:00,74.3,73.4,30.11,South,180,0.0,0.0,97,0.00,,,0.00,0.00,VWS V14.01,2013-06-25 06:46:00,
2013-06-25 02:51:00,74.4,73.6,30.12,South,180,0.0,0.0,97,0.00,,,0.00,0.00,VWS V14.01,2013-06-25 06:51:00,
2013-06-25 02:56:00,74.3,73.4,30.12,South,180,0.0,0.0,97,0.00,,,0.00,0.00,VWS V14.01,2013-06-25 06:56:00,
2013-06-25 03:01:00,74.2,73.3,30.12,South,180,0.0,0.0,97,0.00,,,0.00,0.00,VWS V14.01,2013-06-25 07:01:00,
2013-06-25 03:06:00,74.2,73.3,30.11,South,180,0.0,0.0,97,0.00,,,0.00,0.00,VWS V14.01,2013-06-25 07:06:00,
2013-06-25 03:11:00,74.2,73.3,30.11,South,180,0.0,0.0,97,0.00,,,0.00,0.00,VWS V14.01,2013-06-25 07:11:00,
2013-06-25 03:16:00,74.2,73.2,30.11,South,180,0.0,0.0,97,0.00,,,0.00,0.00,VWS V14.01,2013-06-25 07:16:00,
2013-06-25 03:21:00,74.1,73.4,30.11,South,180,0.0,0.0,98,0.00,,,0.00,0.00,VWS V14.01,2013-06-25 07:21:00,
2013-06-25 03:26:00,73.8,73.2,30.11,South,180,0.0,0.0,98,0.00,,,0.00,0.00,VWS V14.01,2013-06-25 07:26:00,
2013-06-25 03:31:00,73.7,72.8,30.11,South,180,0.0,0.0,97,0.00,,,0.00,0.00,VWS V14.01,2013-06-25 07:31:00,
2013-06-25 03:36:00,73.6,72.7,30.12,South,180,0.0,0.0,97,0.00,,,0.00,0.00,VWS V14.01,2013-06-25 07:36:00,
2013-06-25 03:41:00,73.7,73.1,30.12,South,180,0.0,0.0,98,0.00,,,0.00,0.00,VWS V14.01,2013-06-25 07:41:00,
2013-06-25 03:46:00,73.8,73.2,30.11,South,180,0.0,0.0,98,0.00,,,0.00,0.00,VWS V14.01,2013-06-25 07:46:00,
2013-06-25 03:51:00,73.6,72.9,30.11,South,180,0.0,0.0,98,0.00,,,0.00,0.00,VWS V14.01,2013-06-25 07:51:00,
2013-06-25 03:56:00,73.6,72.9,30.11,South,180,0.0,0.0,98,0.00,,,0.00,0.00,VWS V14.01,2013-06-25 07:56:00,
2013-06-25 04:01:00,73.7,73.1,30.11,South,180,0.0,0.0,98,0.00,,,0.00,0.00,VWS V14.01,2013-06-25 08:01:00,
2013-06-25 04:06:00,73.4,72.9,30.11,South,180,0.0,0.0,98,0.00,,,0.00,0.00,VWS V14.01,2013-06-25 08:06:00,
2013-06-25 04:11:00,73.3,72.8,30.11,South,180,0.0,0.0,98,0.00,,,0.00,0.00,VWS V14.01,2013-06-25 08:11:00,
2013-06-25 04:16:00,73.4,72.9,30.11,South,180,0.0,0.0,98,0.00,,,0.00,0.00,VWS V14.01,2013-06-25 08:16:00,
2013-06-25 04:21:00,73.6,72.9,30.11,South,180,0.0,0.0,98,0.00,,,0.00,0.00,VWS V14.01,2013-06-25 08:21:00,
2013-06-25 04:26:00,73.6,72.9,30.11,South,180,0.0,0.0,98,0.00,,,0.00,0.00,VWS V14.01,2013-06-25 08:26:00,
2013-06-25 04:31:00,73.4,72.9,30.11,South,180,0.0,0.0,98,0.00,,,0.00,0.00,VWS V14.01,2013-06-25 08:31:00,
2013-06-25 04:36:00,73.3,72.8,30.11,South,180,0.0,0.0,98,0.00,,,0.00,0.00,VWS V14.01,2013-06-25 08:36:00,
2013-06-25 04:41:00,73.3,72.8,30.11,South,180,0.0,0.0,98,0.00,,,0.00,0.00,VWS V14.01,2013-06-25 08:41:00,
2013-06-25 04:46:00,73.2,72.6,30.11,South,180,0.0,0.0,98,0.00,,,0.00,0.00,VWS V14.01,2013-06-25 08:46:00,
2013-06-25 04:51:00,73.2,72.6,30.11,South,180,0.0,0.0,98,0.00,,,0.00,0.00,VWS V14.01,2013-06-25 08:51:00,
2013-06-25 04:56:00,73.3,72.8,30.11,South,180,0.0,0.0,98,0.00,,,0.00,0.00,VWS V14.01,2013-06-25 08:56:00,
2013-06-25 05:01:00,73.3,72.8,30.11,South,180,0.0,0.0,98,0.00,,,0.00,0.00,VWS V14.01,2013-06-25 09:01:00,
2013-06-25 05:06:00,73.2,72.6,30.11,South,180,0.0,0.0,98,0.00,,,0.00,0.00,VWS V14.01,2013-06-25 09:06:00,
2013-06-25 05:11:00,73.2,72.6,30.12,South,180,0.0,0.0,98,0.00,,,0.00,0.00,VWS V14.01,2013-06-25 09:11:00,
2013-06-25 05:16:00,73.2,72.6,30.12,South,180,0.0,0.0,98,0.00,,,0.00,0.00,VWS V14.01,2013-06-25 09:16:00,
2013-06-25 05:21:00,73.1,72.5,30.13,South,180,0.0,0.0,98,0.00,,,0.00,0.00,VWS V14.01,2013-06-25 09:21:00,
2013-06-25 05:26:00,73.1,72.5,30.13,South,180,0.0,0.0,98,0.00,,,0.00,0.00,VWS V14.01,2013-06-25 09:26:00,
2013-06-25 05:31:00,73.2,72.6,30.13,South,180,0.0,0.0,98,0.00,,,0.00,0.00,VWS V14.01,2013-06-25 09:31:00,
2013-06-25 05:36:00,73.2,72.6,30.13,South,180,0.0,0.0,98,0.00,,,0.00,0.00,VWS V14.01,2013-06-25 09:36:00,
2013-06-25 05:41:00,73.2,72.6,30.13,South,180,0.0,0.0,98,0.00,,,0.00,0.00,VWS V14.01,2013-06-25 09:41:00,
2013-06-25 05:46:00,72.9,72.4,30.13,South,180,0.0,0.0,98,0.00,,,0.00,0.00,VWS V14.01,2013-06-25 09:46:00,
2013-06-25 05:51:00,72.8,72.3,30.13,South,180,0.0,0.0,98,0.00,,,0.00,0.00,VWS V14.01,2013-06-25 09:51:00,
2013-06-25 05:56:00,72.8,72.3,30.13,South,180,0.0,0.0,98,0.00,,,0.00,0.00,VWS V14.01,2013-06-25 09:56:00,
2013-06-25 06:01:00,72.8,72.3,30.13,South,180,0.0,0.0,98,0.00,,,0.00,0.00,VWS V14.01,2013-06-25 10:01:00,
2013-06-25 06:06:00,72.8,72.3,30.13,South,180,0.0,0.0,98,0.00,,,0.00,0.00,VWS V14.01,2013-06-25 10:06:00,
2013-06-25 06:11:00,72.9,72.4,30.13,South,180,0.0,0.0,98,0.00,,,0.00,0.00,VWS V14.01,2013-06-25 10:11:00,
2013-06-25 06:16:00,72.8,72.3,30.13,South,180,0.0,0.0,98,0.00,,,0.00,0.00,VWS V14.01,2013-06-25 10:16:00,
2013-06-25 06:21:00,72.8,72.2,30.13,South,180,0.0,0.0,98,0.00,,,0.00,0.00,VWS V14.01,2013-06-25 10:21:00,
2013-06-25 06:25:00,72.8,72.3,30.13,South,180,0.0,0.0,98,0.00,,,0.00,5.00,VWS V14.01,2013-06-25 10:25:00,
2013-06-25 06:31:00,72.8,72.3,30.13,South,180,0.0,0.0,98,0.00,,,0.00,7.00,VWS V14.01,2013-06-25 10:31:00,
2013-06-25 06:35:00,72.8,72.3,30.14,South,180,0.0,0.0,98,0.00,,,0.00,9.00,VWS V14.01,2013-06-25 10:35:00,
2013-06-25 06:40:00,72.8,72.2,30.14,South,180,0.0,0.0,98,0.00,,,0.00,11.00,VWS V14.01,2013-06-25 10:40:00,
2013-06-25 06:45:00,72.8,72.2,30.15,South,180,0.0,0.0,98,0.00,,,0.00,14.00,VWS V14.01,2013-06-25 10:45:00,
2013-06-25 06:50:00,72.8,72.3,30.14,South,180,0.0,0.0,98,0.00,,,0.00,18.00,VWS V14.01,2013-06-25 10:50:00,
2013-06-25 06:55:00,72.9,72.4,30.15,South,180,0.0,0.0,98,0.00,,,0.00,23.00,VWS V14.01,2013-06-25 10:55:00,
2013-06-25 07:00:00,73.2,72.6,30.14,South,180,0.0,0.0,98,0.00,,,0.00,23.00,VWS V14.01,2013-06-25 11:00:00,
2013-06-25 07:05:00,73.3,72.8,30.15,South,180,0.0,0.0,98,0.00,,,0.00,26.00,VWS V14.01,2013-06-25 11:05:00,
2013-06-25 07:10:00,73.6,72.9,30.15,South,180,0.0,0.0,98,0.00,,,0.00,32.00,VWS V14.01,2013-06-25 11:10:00,
2013-06-25 07:15:00,73.8,73.2,30.14,South,180,0.0,0.0,98,0.00,,,0.00,33.00,VWS V14.01,2013-06-25 11:15:00,
2013-06-25 07:20:00,73.9,73.3,30.15,South,180,0.0,0.0,98,0.00,,,0.00,39.00,VWS V14.01,2013-06-25 11:20:00,
2013-06-25 07:25:00,74.2,73.7,30.15,South,180,0.0,0.0,98,0.00,,,0.00,44.00,VWS V14.01,2013-06-25 11:25:00,
2013-06-25 07:30:00,74.6,74.3,30.15,South,180,0.0,0.0,99,0.00,,,0.00,60.00,VWS V14.01,2013-06-25 11:30:00,
2013-06-25 07:35:00,75.2,74.6,30.15,South,180,0.0,0.0,98,0.00,,,0.00,63.00,VWS V14.01,2013-06-25 11:35:00,
2013-06-25 07:40:00,75.3,75.1,30.15,South,180,0.0,0.0,99,0.00,,,0.00,47.00,VWS V14.01,2013-06-25 11:40:00,
2013-06-25 07:45:00,75.7,75.1,30.15,South,180,0.0,0.0,98,0.00,,,0.00,44.00,VWS V14.01,2013-06-25 11:45:00,
2013-06-25 07:50:00,75.8,75.6,30.15,South,180,0.0,0.0,99,0.00,,,0.00,49.00,VWS V14.01,2013-06-25 11:50:00,
2013-06-25 07:55:00,76.2,75.6,30.15,South,180,0.0,0.0,98,0.00,,,0.00,44.00,VWS V14.01,2013-06-25 11:55:00,
2013-06-25 08:00:00,76.6,76.2,30.15,South,180,1.1,1.1,99,0.00,,,0.00,42.00,VWS V14.01,2013-06-25 12:00:00,
2013-06-25 08:05:00,77.1,76.4,30.15,SSW,210,1.1,1.1,98,0.00,,,0.00,40.00,VWS V14.01,2013-06-25 12:05:00,
2013-06-25 08:10:00,77.2,76.8,30.15,South,171,1.1,4.4,99,0.00,,,0.00,42.00,VWS V14.01,2013-06-25 12:10:00,
2013-06-25 08:15:00,77.7,77.0,30.15,South,190,1.1,3.3,98,0.00,,,0.00,44.00,VWS V14.01,2013-06-25 12:15:00,
2013-06-25 08:20:00,77.8,77.2,30.15,West,269,0.0,0.0,98,0.00,,,0.00,63.00,VWS V14.01,2013-06-25 12:20:00,
2013-06-25 08:25:00,78.4,77.8,30.16,SSW,212,0.0,0.0,98,0.00,,,0.00,69.00,VWS V14.01,2013-06-25 12:25:00,
2013-06-25 08:30:00,78.9,78.0,30.15,SW,218,0.0,1.1,97,0.00,,,0.00,76.00,VWS V14.01,2013-06-25 12:30:00,
2013-06-25 08:35:00,79.2,77.9,30.15,SW,231,0.0,1.1,96,0.00,,,0.00,56.00,VWS V14.01,2013-06-25 12:35:00,
2013-06-25 08:40:00,79.2,77.7,30.16,SW,225,2.2,4.4,95,0.00,,,0.00,56.00,VWS V14.01,2013-06-25 12:40:00,
2013-06-25 08:45:00,79.9,78.1,30.16,SSW,204,1.1,6.6,94,0.00,,,0.00,116.00,VWS V14.01,2013-06-25 12:45:00,
2013-06-25 08:50:00,80.3,77.8,30.16,South,191,1.1,2.2,92,0.00,,,0.00,77.00,VWS V14.01,2013-06-25 12:50:00,
2013-06-25 08:55:00,80.8,77.9,30.16,NNW,348,0.0,1.1,91,0.00,,,0.00,63.00,VWS V14.01,2013-06-25 12:55:00,
2013-06-25 09:00:00,81.1,77.8,30.15,SSW,200,4.4,4.4,90,0.00,,,0.00,79.00,VWS V14.01,2013-06-25 13:00:00,
2013-06-25 09:05:00,81.1,77.5,30.16,SE,134,2.2,2.2,89,0.00,,,0.00,114.00,VWS V14.01,2013-06-25 13:05:00,
2013-06-25 09:10:00,81.4,78.2,30.15,South,169,0.0,0.0,90,0.00,,,0.00,98.00,VWS V14.01,2013-06-25 13:10:00,
2013-06-25 09:15:00,81.8,77.8,30.15,SSE,162,1.1,1.1,88,0.00,,,0.00,174.00,VWS V14.01,2013-06-25 13:15:00,
2013-06-25 09:20:00,82.4,78.9,30.15,SW,214,1.1,4.4,89,0.00,,,0.00,128.00,VWS V14.01,2013-06-25 13:20:00,
2013-06-25 09:25:00,82.3,78.1,30.15,South,178,2.2,3.3,87,0.00,,,0.00,98.00,VWS V14.01,2013-06-25 13:25:00,
2013-06-25 09:30:00,82.2,78.3,30.15,NW,311,1.1,1.1,88,0.00,,,0.00,105.00,VWS V14.01,2013-06-25 13:30:00,
2013-06-25 09:35:00,82.1,78.2,30.15,South,183,2.2,2.2,88,0.00,,,0.00,190.00,VWS V14.01,2013-06-25 13:35:00,
2013-06-25 09:40:00,82.1,77.8,30.15,WNW,287,1.1,2.2,87,0.00,,,0.00,123.00,VWS V14.01,2013-06-25 13:40:00,
2013-06-25 09:45:00,82.1,77.8,30.15,SSW,203,0.0,0.0,87,0.00,,,0.00,104.00,VWS V14.01,2013-06-25 13:45:00,
2013-06-25 09:50:00,82.1,77.8,30.15,SW,217,1.1,1.1,87,0.00,,,0.00,97.00,VWS V14.01,2013-06-25 13:50:00,
2013-06-25 09:55:00,81.8,77.2,30.15,NW,326,0.0,0.0,86,0.00,,,0.00,91.00,VWS V14.01,2013-06-25 13:55:00,
2013-06-25 10:00:00,82.1,77.1,30.15,West,270,0.0,0.0,85,0.00,,,0.00,102.00,VWS V14.01,2013-06-25 14:00:00,
2013-06-25 10:05:00,82.1,77.1,30.15,SSW,202,2.2,4.4,85,0.00,,,0.00,139.00,VWS V14.01,2013-06-25 14:05:00,
2013-06-25 10:10:00,82.2,77.7,30.15,South,183,0.0,1.1,86,0.00,,,0.00,121.00,VWS V14.01,2013-06-25 14:10:00,
2013-06-25 10:15:00,82.6,77.2,30.15,South,189,1.1,1.1,84,0.00,,,0.00,123.00,VWS V14.01,2013-06-25 14:15:00,
2013-06-25 10:20:00,82.8,77.2,30.15,SSW,198,0.0,2.2,83,0.00,,,0.00,114.00,VWS V14.01,2013-06-25 14:20:00,
2013-06-25 10:25:00,83.2,77.4,30.15,SSE,162,0.0,1.1,83,0.00,,,0.00,113.00,VWS V14.01,2013-06-25 14:25:00,
2013-06-25 10:30:00,83.2,77.6,30.15,West,263,0.0,0.0,83,0.00,,,0.00,134.00,VWS V14.01,2013-06-25 14:30:00,
2013-06-25 10:35:00,83.6,77.1,30.15,West,269,1.1,2.2,81,0.00,,,0.00,163.00,VWS V14.01,2013-06-25 14:35:00,
2013-06-25 10:40:00,83.4,76.6,30.14,ENE,73,0.0,1.1,80,0.00,,,0.00,111.00,VWS V14.01,2013-06-25 14:40:00,
2013-06-25 10:45:00,83.3,76.9,30.14,South,181,1.1,4.4,81,0.00,,,0.00,91.00,VWS V14.01,2013-06-25 14:45:00,
2013-06-25 10:50:00,83.6,76.3,30.14,SW,214,1.1,2.2,79,0.00,,,0.00,95.00,VWS V14.01,2013-06-25 14:50:00,
2013-06-25 10:55:00,83.8,76.6,30.14,SSE,156,2.2,2.2,79,0.00,,,0.00,111.00,VWS V14.01,2013-06-25 14:55:00,
2013-06-25 11:00:00,84.2,77.0,30.14,WNW,282,1.1,3.3,79,0.00,,,0.00,156.00,VWS V14.01,2013-06-25 15:00:00,
2013-06-25 11:05:00,84.4,77.2,30.14,WSW,250,1.1,1.1,79,0.00,,,0.00,114.00,VWS V14.01,2013-06-25 15:05:00,
2013-06-25 11:10:00,84.3,76.4,30.14,West,263,0.0,2.2,77,0.00,,,0.00,232.00,VWS V14.01,2013-06-25 15:10:00,
2013-06-25 11:15:00,84.8,76.8,30.14,South,184,1.1,3.3,77,0.00,,,0.00,127.00,VWS V14.01,2013-06-25 15:15:00,
2013-06-25 11:20:00,84.9,76.9,30.14,SSE,163,0.0,2.2,77,0.00,,,0.00,149.00,VWS V14.01,2013-06-25 15:20:00,
2013-06-25 11:25:00,85.3,77.3,30.14,SSE,168,1.1,1.1,77,0.00,,,0.00,777.00,VWS V14.01,2013-06-25 15:25:00,
2013-06-25 11:30:00,86.1,78.4,30.14,WNW,293,2.2,4.4,78,0.00,,,0.00,803.00,VWS V14.01,2013-06-25 15:30:00,
2013-06-25 11:35:00,86.3,76.7,30.14,South,182,0.0,1.1,73,0.00,,,0.00,824.00,VWS V14.01,2013-06-25 15:35:00,
2013-06-25 11:40:00,86.4,77.2,30.14,NNW,327,1.1,2.2,74,0.00,,,0.00,831.00,VWS V14.01,2013-06-25 15:40:00,
2013-06-25 11:45:00,87.1,76.9,30.14,SSW,202,1.1,2.2,72,0.00,,,0.00,835.00,VWS V14.01,2013-06-25 15:45:00,
2013-06-25 11:50:00,87.6,78.2,30.13,SSW,212,2.2,2.2,74,0.00,,,0.00,891.00,VWS V14.01,2013-06-25 15:50:00,
2013-06-25 11:55:00,87.9,78.2,30.14,SW,225,2.2,2.2,73,0.00,,,0.00,986.00,VWS V14.01,2013-06-25 15:55:00,
2013-06-25 12:00:00,87.6,78.7,30.13,SSW,206,1.1,4.4,75,0.00,,,0.00,916.00,VWS V14.01,2013-06-25 16:00:00,
2013-06-25 12:05:00,86.9,76.4,30.13,NW,309,0.0,3.3,71,0.00,,,0.00,925.00,VWS V14.01,2013-06-25 16:05:00,
2013-06-25 12:10:00,86.9,76.4,30.13,South,173,4.4,7.7,71,0.00,,,0.00,893.00,VWS V14.01,2013-06-25 16:10:00,
2013-06-25 12:15:00,87.2,76.3,30.13,SSE,168,0.0,0.0,70,0.00,,,0.00,874.00,VWS V14.01,2013-06-25 16:15:00,
2013-06-25 12:20:00,87.8,76.3,30.13,SSW,193,3.3,3.3,69,0.00,,,0.00,895.00,VWS V14.01,2013-06-25 16:20:00,
2013-06-25 12:25:00,88.6,76.2,30.13,SSE,166,2.2,6.6,67,0.00,,,0.00,911.00,VWS V14.01,2013-06-25 16:25:00,
2013-06-25 12:30:00,88.3,76.9,30.13,SW,216,2.2,4.4,69,0.00,,,0.00,925.00,VWS V14.01,2013-06-25 16:30:00,
2013-06-25 12:35:00,88.4,77.4,30.12,North,6,0.0,1.1,70,0.00,,,0.00,947.00,VWS V14.01,2013-06-25 16:35:00,
2013-06-25 12:40:00,88.7,76.7,30.12,SSW,211,3.3,3.3,68,0.00,,,0.00,1016.00,VWS V14.01,2013-06-25 16:40:00,
2013-06-25 12:45:00,88.9,76.6,30.12,SE,126,5.5,5.5,67,0.00,,,0.00,281.00,VWS V14.01,2013-06-25 16:45:00,
2013-06-25 12:50:00,88.8,77.7,30.12,SW,226,3.3,3.3,70,0.00,,,0.00,993.00,VWS V14.01,2013-06-25 16:50:00,
2013-06-25 12:55:00,89.1,78.0,30.12,NNW,338,0.0,0.0,70,0.00,,,0.00,1028.00,VWS V14.01,2013-06-25 16:55:00,
2013-06-25 13:00:00,89.3,78.7,30.12,SSW,193,2.2,2.2,71,0.00,,,0.00,1058.00,VWS V14.01,2013-06-25 17:00:00,
2013-06-25 13:05:00,89.8,78.2,30.12,ESE,123,0.0,2.2,69,0.00,,,0.00,1048.00,VWS V14.01,2013-06-25 17:05:00,
2013-06-25 13:10:00,90.6,77.6,30.12,WSW,250,1.1,3.3,66,0.00,,,0.00,995.00,VWS V14.01,2013-06-25 17:10:00,
2013-06-25 13:15:00,89.1,78.4,30.12,WSW,237,5.5,6.6,71,0.00,,,0.00,858.00,VWS V14.01,2013-06-25 17:15:00,
2013-06-25 13:20:00,87.7,77.5,30.12,NW,304,0.0,1.1,72,0.00,,,0.00,483.00,VWS V14.01,2013-06-25 17:20:00,
2013-06-25 13:25:00,87.6,77.4,30.12,SE,129,1.1,3.3,72,0.00,,,0.00,589.00,VWS V14.01,2013-06-25 17:25:00,
2013-06-25 13:30:00,87.7,77.1,30.11,SSE,168,1.1,3.3,71,0.00,,,0.00,408.00,VWS V14.01,2013-06-25 17:30:00,
2013-06-25 13:35:00,87.8,77.2,30.11,SE,125,0.0,2.2,71,0.00,,,0.00,1027.00,VWS V14.01,2013-06-25 17:35:00,
2013-06-25 13:40:00,89.1,78.8,30.11,SSE,151,0.0,0.0,72,0.00,,,0.00,984.00,VWS V14.01,2013-06-25 17:40:00,
2013-06-25 13:45:00,89.2,78.6,30.11,ESE,123,2.2,2.2,71,0.00,,,0.00,981.00,VWS V14.01,2013-06-25 17:45:00,
2013-06-25 13:50:00,88.8,77.8,30.11,SE,137,1.1,1.1,70,0.00,,,0.00,91.00,VWS V14.01,2013-06-25 17:50:00,
2013-06-25 13:55:00,87.1,76.9,30.11,South,175,2.2,2.2,72,0.00,,,0.00,83.00,VWS V14.01,2013-06-25 17:55:00,
2013-06-25 14:00:00,85.3,75.7,30.11,SW,224,2.2,7.7,73,0.00,,,0.00,113.00,VWS V14.01,2013-06-25 18:00:00,
2013-06-25 14:05:00,83.2,76.1,30.11,SSW,213,1.1,1.1,79,0.00,,,0.00,128.00,VWS V14.01,2013-06-25 18:05:00,
2013-06-25 14:10:00,82.1,76.4,30.10,SW,216,0.0,2.2,83,0.00,,,0.00,162.00,VWS V14.01,2013-06-25 18:10:00,
2013-06-25 14:15:00,80.8,76.2,30.10,SSE,160,1.1,2.2,86,0.01,,,0.01,285.00,VWS V14.01,2013-06-25 18:15:00,
2013-06-25 14:20:00,80.8,76.6,30.09,SSE,160,0.0,0.0,87,0.01,,,0.01,1009.00,VWS V14.01,2013-06-25 18:20:00,
2013-06-25 14:25:00,82.7,78.0,30.10,SSW,198,0.0,2.2,86,0.01,,,0.01,867.00,VWS V14.01,2013-06-25 18:25:00,
2013-06-25 14:30:00,84.6,77.7,30.09,SE,129,0.0,0.0,80,0.01,,,0.01,969.00,VWS V14.01,2013-06-25 18:30:00,
2013-06-25 14:35:00,86.2,78.5,30.09,SSW,196,1.1,1.1,78,0.01,,,0.01,965.00,VWS V14.01,2013-06-25 18:35:00,
2013-06-25 14:40:00,86.8,77.5,30.09,South,169,0.0,1.1,74,0.01,,,0.01,954.00,VWS V14.01,2013-06-25 18:40:00,
2013-06-25 14:45:00,87.6,79.1,30.09,SSE,152,1.1,1.1,76,0.01,,,0.01,914.00,VWS V14.01,2013-06-25 18:45:00,
2013-06-25 14:50:00,88.2,78.8,30.08,SSE,158,2.2,2.2,74,0.01,,,0.01,677.00,VWS V14.01,2013-06-25 18:50:00,
2013-06-25 14:55:00,88.7,78.9,30.08,SE,141,1.1,1.1,73,0.01,,,0.01,659.00,VWS V14.01,2013-06-25 18:55:00,
2013-06-25 15:00:00,89.4,79.7,30.08,South,176,1.1,6.6,73,0.01,,,0.01,840.00,VWS V14.01,2013-06-25 19:00:00,
2013-06-25 15:05:00,88.2,77.7,30.08,SSE,156,0.0,2.2,71,0.01,,,0.01,411.00,VWS V14.01,2013-06-25 19:05:00,
2013-06-25 15:10:00,87.8,78.5,30.07,SSE,156,0.0,1.1,74,0.01,,,0.01,578.00,VWS V14.01,2013-06-25 19:10:00,
2013-06-25 15:15:00,87.4,78.6,30.07,SSE,156,1.1,1.1,75,0.00,,,0.01,427.00,VWS V14.01,2013-06-25 19:15:00,
2013-06-25 15:20:00,87.6,79.1,30.07,South,171,0.0,0.0,76,0.00,,,0.01,737.00,VWS V14.01,2013-06-25 19:20:00,
2013-06-25 15:25:00,88.6,77.9,30.06,South,184,1.1,1.1,71,0.00,,,0.01,680.00,VWS V14.01,2013-06-25 19:25:00,
2013-06-25 15:30:00,89.3,78.3,30.07,South,173,2.2,3.3,70,0.00,,,0.01,148.00,VWS V14.01,2013-06-25 19:30:00,
2013-06-25 15:35:00,87.9,77.8,30.07,ESE,121,0.0,2.2,72,0.00,,,0.01,178.00,VWS V14.01,2013-06-25 19:35:00,
2013-06-25 15:40:00,87.3,78.5,30.07,SE,125,0.0,0.0,75,0.00,,,0.01,63.00,VWS V14.01,2013-06-25 19:40:00,
2013-06-25 15:45:00,86.7,77.8,30.07,WSW,258,0.0,2.2,75,0.00,,,0.01,60.00,VWS V14.01,2013-06-25 19:45:00,
2013-06-25 15:50:00,86.1,78.4,30.07,SSE,166,4.4,4.4,78,0.00,,,0.01,93.00,VWS V14.01,2013-06-25 19:50:00,
2013-06-25 15:55:00,82.2,75.5,30.08,North,358,5.5,7.7,80,0.27,,,0.28,165.00,VWS V14.01,2013-06-25 19:55:00,
2013-06-25 16:00:00,78.2,74.0,30.07,North,5,3.3,6.6,87,0.44,,,0.45,232.00,VWS V14.01,2013-06-25 20:00:00,
2013-06-25 16:05:00,76.4,73.6,30.07,NNW,330,0.0,3.3,91,0.51,,,0.52,635.00,VWS V14.01,2013-06-25 20:05:00,
2013-06-25 16:10:00,76.3,74.5,30.06,NNW,330,0.0,0.0,94,0.54,,,0.55,823.00,VWS V14.01,2013-06-25 20:10:00,
2013-06-25 16:15:00,78.2,76.9,30.06,NNW,330,0.0,0.0,96,0.55,,,0.56,814.00,VWS V14.01,2013-06-25 20:15:00,
2013-06-25 16:20:00,79.1,77.8,30.06,NNW,330,0.0,0.0,96,0.55,,,0.56,782.00,VWS V14.01,2013-06-25 20:20:00,
2013-06-25 16:25:00,80.1,78.8,30.06,NNW,330,0.0,0.0,96,0.55,,,0.56,763.00,VWS V14.01,2013-06-25 20:25:00,
2013-06-25 16:30:00,81.7,80.7,30.06,NNW,330,0.0,0.0,97,0.55,,,0.56,744.00,VWS V14.01,2013-06-25 20:30:00,
2013-06-25 16:35:00,81.9,80.1,30.05,NNW,330,1.1,1.1,94,0.55,,,0.56,708.00,VWS V14.01,2013-06-25 20:35:00,
2013-06-25 16:40:00,82.9,81.1,30.05,NNW,330,0.0,0.0,94,0.55,,,0.56,663.00,VWS V14.01,2013-06-25 20:40:00,
2013-06-25 16:45:00,82.7,80.4,30.05,SSW,198,1.1,1.1,93,0.55,,,0.56,132.00,VWS V14.01,2013-06-25 20:45:00,
2013-06-25 16:50:00,82.2,79.7,30.05,SSW,206,0.0,0.0,92,0.55,,,0.56,153.00,VWS V14.01,2013-06-25 20:50:00,
2013-06-25 16:55:00,82.6,80.7,30.05,NE,50,0.0,1.1,94,0.30,,,0.56,190.00,VWS V14.01,2013-06-25 20:55:00,
2013-06-25 17:00:00,82.7,80.8,30.05,NE,50,0.0,0.0,94,0.12,,,0.56,141.00,VWS V14.01,2013-06-25 21:00:00,
2013-06-25 17:05:00,82.2,80.3,30.05,NE,50,0.0,0.0,94,0.05,,,0.56,452.00,VWS V14.01,2013-06-25 21:05:00,
2013-06-25 17:10:00,82.4,80.9,30.05,NE,50,0.0,0.0,95,0.01,,,0.56,209.00,VWS V14.01,2013-06-25 21:10:00,
2013-06-25 17:15:00,82.8,81.2,30.05,SSW,204,0.0,0.0,95,0.00,,,0.56,446.00,VWS V14.01,2013-06-25 21:15:00,
2013-06-25 17:20:00,83.2,80.3,30.05,ESE,116,0.0,0.0,91,0.00,,,0.56,269.00,VWS V14.01,2013-06-25 21:20:00,
2013-06-25 17:25:00,83.3,80.4,30.05,SSE,148,0.0,1.1,91,0.00,,,0.56,206.00,VWS V14.01,2013-06-25 21:25:00,
2013-06-25 17:30:00,82.8,79.5,30.06,South,183,0.0,0.0,90,0.00,,,0.56,165.00,VWS V14.01,2013-06-25 21:30:00,
2013-06-25 17:35:00,82.8,78.9,30.05,South,179,1.1,1.1,88,0.00,,,0.56,141.00,VWS V14.01,2013-06-25 21:35:00,
2013-06-25 17:40:00,82.6,79.3,30.05,South,179,0.0,2.2,90,0.00,,,0.56,113.00,VWS V14.01,2013-06-25 21:40:00,
2013-06-25 17:45:00,82.2,78.9,30.05,SSW,203,0.0,1.1,90,0.00,,,0.56,97.00,VWS V14.01,2013-06-25 21:45:00,
2013-06-25 17:50:00,82.2,78.7,30.06,SE,139,0.0,3.3,89,0.00,,,0.56,84.00,VWS V14.01,2013-06-25 21:50:00,
2013-06-25 17:55:00,82.1,78.8,30.06,SSE,158,0.0,0.0,90,0.00,,,0.56,84.00,VWS V14.01,2013-06-25 21:55:00,
2013-06-25 18:00:00,82.1,78.5,30.06,South,173,3.3,3.3,89,0.00,,,0.56,84.00,VWS V14.01,2013-06-25 22:00:00,
2013-06-25 18:05:00,81.7,78.4,30.06,SSE,163,1.1,2.2,90,0.00,,,0.56,83.00,VWS V14.01,2013-06-25 22:05:00,
2013-06-25 18:10:00,81.4,78.2,30.05,SE,143,0.0,3.3,90,0.00,,,0.56,77.00,VWS V14.01,2013-06-25 22:10:00,
2013-06-25 18:15:00,82.2,78.2,30.05,South,174,3.3,3.3,88,0.00,,,0.56,76.00,VWS V14.01,2013-06-25 22:15:00,
2013-06-25 18:20:00,82.3,78.1,30.05,South,171,1.1,3.3,87,0.00,,,0.56,72.00,VWS V14.01,2013-06-25 22:20:00,
2013-06-25 18:25:00,82.3,78.1,30.05,SW,218,0.0,3.3,87,0.00,,,0.56,70.00,VWS V14.01,2013-06-25 22:25:00,
2013-06-25 18:30:00,82.2,77.9,30.05,SSW,198,0.0,0.0,87,0.00,,,0.56,67.00,VWS V14.01,2013-06-25 22:30:00,
2013-06-25 18:35:00,82.1,77.8,30.05,SSW,206,0.0,0.0,87,0.00,,,0.56,62.00,VWS V14.01,2013-06-25 22:35:00,
2013-06-25 18:40:00,81.7,77.8,30.05,SSW,200,1.1,3.3,88,0.00,,,0.56,56.00,VWS V14.01,2013-06-25 22:40:00,
2013-06-25 18:45:00,81.6,78.0,30.05,SSE,156,0.0,1.1,89,0.00,,,0.56,51.00,VWS V14.01,2013-06-25 22:45:00,
2013-06-25 18:50:00,81.4,77.9,30.05,SSE,156,0.0,0.0,89,0.00,,,0.56,51.00,VWS V14.01,2013-06-25 22:50:00,
2013-06-25 18:55:00,81.1,77.8,30.05,SSE,156,0.0,0.0,90,0.00,,,0.56,47.00,VWS V14.01,2013-06-25 22:55:00,
2013-06-25 19:00:00,80.8,77.9,30.05,South,182,0.0,1.1,91,0.00,,,0.56,47.00,VWS V14.01,2013-06-25 23:00:00,
2013-06-25 19:05:00,80.6,77.7,30.04,SSE,149,0.0,0.0,91,0.00,,,0.56,49.00,VWS V14.01,2013-06-25 23:05:00,
2013-06-25 19:10:00,80.7,77.4,30.04,East,95,0.0,0.0,90,0.00,,,0.56,51.00,VWS V14.01,2013-06-25 23:10:00,
2013-06-25 19:15:00,80.8,77.7,30.04,SSE,147,0.0,0.0,90,0.00,,,0.56,53.00,VWS V14.01,2013-06-25 23:15:00,
2013-06-25 19:20:00,80.8,77.6,30.04,SW,225,2.2,2.2,90,0.00,,,0.56,54.00,VWS V14.01,2013-06-25 23:20:00,
2013-06-25 19:25:00,81.2,77.6,30.04,SSW,198,1.1,2.2,89,0.00,,,0.56,54.00,VWS V14.01,2013-06-25 23:25:00,
2013-06-25 19:30:00,81.4,77.6,30.04,South,187,0.0,0.0,88,0.00,,,0.56,54.00,VWS V14.01,2013-06-25 23:30:00,
2013-06-25 19:35:00,81.6,77.7,30.04,SE,131,0.0,1.1,88,0.00,,,0.56,53.00,VWS V14.01,2013-06-25 23:35:00,
2013-06-25 19:40:00,81.3,77.5,30.05,South,185,0.0,0.0,88,0.00,,,0.56,46.00,VWS V14.01,2013-06-25 23:40:00,
2013-06-25 19:45:00,81.6,77.7,30.05,SSW,204,2.2,2.2,88,0.00,,,0.56,42.00,VWS V14.01,2013-06-25 23:45:00,
2013-06-25 19:50:00,81.4,77.9,30.05,SE,135,3.3,3.3,89,0.00,,,0.56,39.00,VWS V14.01,2013-06-25 23:50:00,
2013-06-25 19:55:00,81.3,77.8,30.05,SSE,158,0.0,0.0,89,0.00,,,0.56,33.00,VWS V14.01,2013-06-25 23:55:00,
2013-06-25 20:00:00,81.4,77.9,30.05,South,179,1.1,1.1,89,0.00,,,0.56,26.00,VWS V14.01,2013-06-26 00:00:00,
2013-06-25 20:05:00,81.3,77.5,30.06,SSW,197,4.4,4.4,88,0.00,,,0.56,19.00,VWS V14.01,2013-06-26 00:05:00,
2013-06-25 20:10:00,81.2,77.7,30.05,SW,225,0.0,0.0,89,0.00,,,0.56,12.00,VWS V14.01,2013-06-26 00:10:00,
2013-06-25 20:15:00,81.2,77.6,30.05,South,176,0.0,1.1,89,0.00,,,0.56,7.00,VWS V14.01,2013-06-26 00:15:00,
2013-06-25 20:20:00,81.1,77.5,30.05,SSW,200,0.0,0.0,89,0.00,,,0.56,5.00,VWS V14.01,2013-06-26 00:20:00,
2013-06-25 20:25:00,80.8,77.3,30.06,SSE,158,1.1,2.2,89,0.00,,,0.56,0.00,VWS V14.01,2013-06-26 00:25:00,
2013-06-25 20:30:00,80.9,77.4,30.06,SSW,211,1.1,1.1,89,0.00,,,0.56,0.00,VWS V14.01,2013-06-26 00:30:00,
2013-06-25 20:35:00,80.8,77.7,30.06,SSW,193,0.0,0.0,90,0.00,,,0.56,0.00,VWS V14.01,2013-06-26 00:35:00,
2013-06-25 20:40:00,80.8,77.6,30.06,SW,214,0.0,0.0,90,0.00,,,0.56,0.00,VWS V14.01,2013-06-26 00:40:00,
2013-06-25 20:45:00,80.6,77.3,30.06,SSE,158,0.0,1.1,90,0.00,,,0.56,0.00,VWS V14.01,2013-06-26 00:45:00,
2013-06-25 20:50:00,80.6,77.3,30.07,South,187,0.0,0.0,90,0.00,,,0.56,0.00,VWS V14.01,2013-06-26 00:50:00,
2013-06-25 20:55:00,80.6,77.3,30.07,ESE,123,2.2,2.2,90,0.00,,,0.56,0.00,VWS V14.01,2013-06-26 00:55:00,
2013-06-25 21:00:00,80.6,77.3,30.07,SSE,160,0.0,0.0,90,0.00,,,0.56,0.00,VWS V14.01,2013-06-26 01:00:00,
2013-06-25 21:05:00,80.4,77.2,30.06,South,181,0.0,0.0,90,0.00,,,0.56,0.00,VWS V14.01,2013-06-26 01:05:00,
2013-06-25 21:10:00,80.4,77.2,30.07,SSW,195,0.0,1.1,90,0.00,,,0.56,0.00,VWS V14.01,2013-06-26 01:10:00,
2013-06-25 21:15:00,80.4,77.2,30.07,South,189,0.0,0.0,90,0.00,,,0.56,0.00,VWS V14.01,2013-06-26 01:15:00,
2013-06-25 21:20:00,80.4,77.2,30.07,SW,214,1.1,1.1,90,0.00,,,0.56,0.00,VWS V14.01,2013-06-26 01:20:00,
2013-06-25 21:25:00,80.3,77.2,30.07,SSW,202,3.3,4.4,90,0.00,,,0.56,0.00,VWS V14.01,2013-06-26 01:25:00,
2013-06-25 21:30:00,80.3,77.2,30.07,SSE,159,3.3,3.3,90,0.00,,,0.56,0.00,VWS V14.01,2013-06-26 01:30:00,
2013-06-25 21:35:00,80.3,76.8,30.07,SSE,167,0.0,1.1,89,0.00,,,0.56,0.00,VWS V14.01,2013-06-26 01:35:00,
2013-06-25 21:40:00,80.2,76.9,30.07,South,174,0.0,1.1,90,0.00,,,0.56,0.00,VWS V14.01,2013-06-26 01:40:00,
2013-06-25 21:45:00,80.1,76.9,30.07,South,172,0.0,0.0,90,0.00,,,0.56,0.00,VWS V14.01,2013-06-26 01:45:00,
2013-06-25 21:50:00,79.9,76.8,30.07,SSW,206,0.0,1.1,90,0.00,,,0.56,0.00,VWS V14.01,2013-06-26 01:50:00,
2013-06-25 21:55:00,79.8,76.6,30.07,SSW,206,0.0,0.0,90,0.00,,,0.56,0.00,VWS V14.01,2013-06-26 01:55:00,
2013-06-25 22:00:00,79.4,76.6,30.07,SSW,206,0.0,0.0,91,0.00,,,0.56,0.00,VWS V14.01,2013-06-26 02:00:00,
2013-06-25 22:05:00,79.2,76.4,30.07,South,186,2.2,2.2,91,0.00,,,0.56,0.00,VWS V14.01,2013-06-26 02:05:00,
2013-06-25 22:10:00,79.2,76.4,30.07,SSW,194,0.0,0.0,91,0.00,,,0.56,0.00,VWS V14.01,2013-06-26 02:10:00,
2013-06-25 22:15:00,79.1,76.2,30.07,SSW,210,1.1,1.1,91,0.00,,,0.56,0.00,VWS V14.01,2013-06-26 02:15:00,
2013-06-25 22:20:00,78.8,76.3,30.07,SSW,200,0.0,1.1,92,0.00,,,0.56,0.00,VWS V14.01,2013-06-26 02:20:00,
2013-06-25 22:25:00,78.7,76.1,30.06,SSW,200,0.0,1.1,92,0.00,,,0.56,0.00,VWS V14.01,2013-06-26 02:25:00,
2013-06-25 22:30:00,78.6,76.0,30.06,SSW,197,1.1,1.1,92,0.00,,,0.56,0.00,VWS V14.01,2013-06-26 02:30:00,
2013-06-25 22:35:00,78.4,75.9,30.06,SSW,197,0.0,0.0,92,0.00,,,0.56,0.00,VWS V14.01,2013-06-26 02:35:00,
2013-06-25 22:40:00,78.4,75.9,30.06,South,179,0.0,0.0,92,0.00,,,0.56,0.00,VWS V14.01,2013-06-26 02:40:00,
2013-06-25 22:45:00,78.2,75.7,30.06,SSW,213,0.0,0.0,92,0.00,,,0.56,0.00,VWS V14.01,2013-06-26 02:45:00,
2013-06-25 22:50:00,78.1,75.9,30.06,SSW,213,0.0,0.0,93,0.00,,,0.56,0.00,VWS V14.01,2013-06-26 02:50:00,
2013-06-25 22:55:00,77.7,75.5,30.06,SSW,213,0.0,0.0,93,0.00,,,0.56,0.00,VWS V14.01,2013-06-26 02:55:00,
2013-06-25 23:00:00,77.3,75.5,30.06,SSW,213,0.0,0.0,94,0.00,,,0.56,0.00,VWS V14.01,2013-06-26 03:00:00,
2013-06-25 23:05:00,76.9,75.1,30.06,SSW,213,0.0,0.0,94,0.00,,,0.56,0.00,VWS V14.01,2013-06-26 03:05:00,
2013-06-25 23:10:00,76.7,75.1,30.06,SSW,213,0.0,0.0,95,0.00,,,0.56,0.00,VWS V14.01,2013-06-26 03:10:00,
2013-06-25 23:15:00,76.6,75.0,30.07,SSW,213,0.0,0.0,95,0.00,,,0.56,0.00,VWS V14.01,2013-06-26 03:15:00,
2013-06-25 23:20:00,76.6,75.3,30.07,SSW,213,0.0,0.0,96,0.00,,,0.56,0.00,VWS V14.01,2013-06-26 03:20:00,
2013-06-25 23:25:00,76.2,75.0,30.07,SSW,213,0.0,0.0,96,0.00,,,0.56,0.00,VWS V14.01,2013-06-26 03:25:00,
2013-06-25 23:30:00,76.2,74.9,30.07,SSW,213,0.0,0.0,96,0.00,,,0.56,0.00,VWS V14.01,2013-06-26 03:30:00,
2013-06-25 23:35:00,75.9,74.7,30.07,SSW,213,0.0,0.0,96,0.00,,,0.56,0.00,VWS V14.01,2013-06-26 03:35:00,
2013-06-25 23:40:00,75.8,74.6,30.06,SSW,213,0.0,0.0,96,0.00,,,0.56,0.00,VWS V14.01,2013-06-26 03:40:00,
2013-06-25 23:45:00,75.9,75.0,30.06,SSW,213,0.0,0.0,97,0.00,,,0.56,0.00,VWS V14.01,2013-06-26 03:45:00,
2013-06-25 23:50:00,75.8,74.9,30.06,SSW,213,0.0,0.0,97,0.00,,,0.56,0.00,VWS V14.01,2013-06-26 03:50:00,
2013-06-25 23:55:00,75.8,74.8,30.06,SSW,213,0.0,0.0,97,0.00,,,0.56,0.00,VWS V14.01,2013-06-26 03:55:00,